Weather History for Sidney-Richland, MT

Change the Weather History Date:

Saturday, December 7, 2013

  Actual Average Record
Temperature  
Mean Temperature -20 °F -  
Max Temperature -14 °F 30 °F 52 °F (1965)
Min Temperature -27 °F 9 °F -27 °F (2013)
Degree Days  
Heating Degree Days 86    
Moisture  
Dew Point -26 °F    
Average Humidity 69    
Maximum Humidity 83    
Minimum Humidity 53    
Precipitation  
Precipitation 0.00 in - - ()
Sea Level Pressure  
Sea Level Pressure 30.46 in    
Wind  
Wind Speed 6 mph (SSW)    
Max Wind Speed 13 mph    
Max Gust Speed -    
Visibility 10 miles    
Events      
Averages and records for this station are not official NWS values.
T = Trace of Precipitation, MM = Missing Value Source: NWS Daily Summary

Daily Weather History Graph

Daily Weather History Graph

Search for Another Location

Airport:

Trip Planner

Search our weather history database for the weather conditions in past years. The results will help you decide how hot, cold, wet, or windy it might be!

Date:

Astronomy

Dec. 07, 2013 Rise Set
Actual Time 7:31 AM MST 4:05 PM MST
Civil Twilight 6:55 AM MST 4:40 PM MST
Nautical Twilight 6:16 AM MST 5:19 PM MST
Astronomical Twilight 5:39 AM MST 5:57 PM MST
Moon 11:02 AM MST (12/7) 10:07 PM MST (12/7)
Length of Visible Light 9h 44m
Length of Day
8h 33m
Waxing Crescent, 30% of the Moon is Illuminated
Dec 7
Waxing Crescent
Dec 9
First Quarter
Dec 17
Full
Dec 25
Last Quarter
Jan 1
New

Hourly Weather History & Observations

Time (MST) Temp. Windchill Dew Point Humidity Pressure Visibility Wind Dir Wind Speed Gust Speed Precip Events Conditions
12:15 AM -20.2 °F -35.5 °F -23.8 °F 83% 30.60 in 10.0 mi WSW 5.8 mph - N/A   Clear
12:35 AM -20.2 °F -38.8 °F -27.4 °F 69% 30.60 in 10.0 mi West 8.1 mph - N/A   Clear
12:55 AM -20.2 °F -33.5 °F -25.6 °F 76% 30.60 in 10.0 mi WSW 4.6 mph - N/A   Clear
1:15 AM -20.2 °F -30.9 °F -29.2 °F 63% 30.59 in 10.0 mi West 3.5 mph - N/A   Clear
1:35 AM -20.2 °F -33.5 °F -29.2 °F 63% 30.59 in 10.0 mi WSW 4.6 mph - N/A   Clear
1:55 AM -22.0 °F -37.7 °F -27.4 °F 76% 30.59 in 10.0 mi WSW 5.8 mph - N/A   Clear
2:15 AM -20.2 °F -35.5 °F -25.6 °F 76% 30.58 in 10.0 mi WSW 5.8 mph - N/A   Clear
2:35 AM -22.0 °F - - N/A% 30.58 in 10.0 mi Calm Calm - N/A   Clear
2:55 AM -20.2 °F -33.5 °F -27.4 °F 69% 30.58 in 10.0 mi South 4.6 mph - N/A   Clear
3:15 AM -20.2 °F - -25.6 °F 76% 30.58 in 10.0 mi Calm Calm - N/A   Clear
3:35 AM -20.2 °F -30.9 °F -27.4 °F 69% 30.58 in 10.0 mi SSW 3.5 mph - N/A   Clear
3:55 AM -23.8 °F -39.8 °F - N/A% 30.57 in 10.0 mi SSW 5.8 mph - N/A   Clear
4:15 AM -23.8 °F -37.7 °F - N/A% 30.57 in 10.0 mi South 4.6 mph - N/A   Clear
4:35 AM -25.6 °F -37.1 °F - N/A% 30.56 in 10.0 mi South 3.5 mph - N/A   Clear
4:55 AM -25.6 °F -41.9 °F -29.2 °F 83% 30.56 in 10.0 mi SSW 5.8 mph - N/A   Clear
5:15 AM -25.6 °F -39.8 °F - N/A% 30.55 in 10.0 mi SSW 4.6 mph - N/A   Clear
5:35 AM -25.6 °F -39.8 °F - N/A% 30.55 in 10.0 mi SSW 4.6 mph - N/A   Clear
5:55 AM -25.6 °F -37.1 °F - N/A% 30.54 in 10.0 mi SSW 3.5 mph - N/A   Clear
6:15 AM -27.4 °F -44.1 °F - N/A% 30.55 in 10.0 mi SSW 5.8 mph - N/A   Clear
6:35 AM -27.4 °F -41.9 °F - N/A% 30.54 in 10.0 mi SSW 4.6 mph - N/A   Clear
6:55 AM -25.6 °F -39.8 °F - N/A% 30.54 in 10.0 mi SSW 4.6 mph - N/A   Clear
7:15 AM -27.4 °F -41.9 °F - N/A% 30.54 in 10.0 mi SSW 4.6 mph - N/A   Clear
7:35 AM -27.4 °F -45.9 °F - N/A% 30.54 in 10.0 mi SSW 6.9 mph - N/A   Clear
7:55 AM -27.4 °F -45.9 °F - N/A% 30.54 in 10.0 mi SSW 6.9 mph - N/A   Clear
8:15 AM - - - N/A% 30.54 in 10.0 mi SSW 6.9 mph - N/A   Clear
8:35 AM -25.6 °F -41.9 °F - N/A% 30.55 in 10.0 mi SSW 5.8 mph - N/A   Clear
8:55 AM -25.6 °F -43.8 °F - N/A% 30.54 in 10.0 mi SSW 6.9 mph - N/A   Clear
9:15 AM -23.8 °F -43.2 °F -27.4 °F 83% 30.55 in 10.0 mi SSW 8.1 mph - N/A   Clear
9:35 AM - - - N/A% 30.55 in 10.0 mi SSW 6.9 mph - N/A   Clear
9:55 AM -22.0 °F -41.0 °F -27.4 °F 76% 30.55 in 10.0 mi SSW 8.1 mph - N/A   Clear
10:15 AM -20.2 °F -38.8 °F -23.8 °F 83% 30.55 in 10.0 mi SSW 8.1 mph - N/A   Clear
10:35 AM -18.4 °F -37.9 °F -27.4 °F 63% 30.54 in 10.0 mi South 9.2 mph - N/A   Clear
10:55 AM - - - N/A% 30.53 in 10.0 mi South 9.2 mph - N/A   Clear
11:15 AM - - - N/A% 30.52 in 10.0 mi South 9.2 mph - N/A   Clear
11:35 AM -16.6 °F -35.7 °F -23.8 °F 70% 30.51 in 10.0 mi SSW 9.2 mph - N/A   Clear
11:55 AM - - - N/A% 30.49 in 10.0 mi South 9.2 mph - N/A   Clear
12:15 PM - - - N/A% 30.48 in 10.0 mi South 6.9 mph - N/A   Clear
12:35 PM - - - N/A% 30.48 in 10.0 mi South 6.9 mph - N/A   Clear
12:55 PM -14.8 °F -32.2 °F -27.4 °F 53% 30.47 in 10.0 mi South 8.1 mph - N/A   Clear
1:15 PM -14.8 °F -33.5 °F -23.8 °F 64% 30.46 in 10.0 mi SSW 9.2 mph - N/A   Clear
1:35 PM -14.8 °F -33.5 °F -23.8 °F 64% 30.44 in 10.0 mi SSW 9.2 mph - N/A   Clear
1:55 PM -14.8 °F -36.6 °F -23.8 °F 64% 30.43 in 10.0 mi SSW 12.7 mph - N/A   Clear
2:15 PM -14.8 °F -34.6 °F -23.8 °F 64% 30.42 in 10.0 mi SSW 10.4 mph - N/A   Clear
2:35 PM -14.8 °F -33.5 °F -25.6 °F 58% 30.41 in 10.0 mi SSW 9.2 mph - N/A   Clear
2:55 PM -14.8 °F -33.5 °F -23.8 °F 64% 30.41 in 10.0 mi SSW 9.2 mph - N/A   Clear
3:15 PM -14.8 °F -33.5 °F -25.6 °F 58% 30.40 in 10.0 mi SSW 9.2 mph - N/A   Clear
3:35 PM -14.8 °F -32.2 °F -25.6 °F 58% 30.39 in 10.0 mi SSW 8.1 mph - N/A   Clear
3:55 PM -16.6 °F -32.9 °F -25.6 °F 64% 30.39 in 10.0 mi SSW 6.9 mph - N/A   Clear
4:15 PM - - - N/A% 30.38 in 10.0 mi SSW 6.9 mph - N/A   Clear
4:35 PM - - - N/A% 30.37 in 10.0 mi SSW 5.8 mph - N/A   Clear
4:55 PM - - - N/A% 30.37 in 10.0 mi SSW 4.6 mph - N/A   Clear
5:15 PM - - - N/A% 30.37 in 10.0 mi SSW 6.9 mph - N/A   Clear
5:35 PM - - - N/A% 30.37 in 10.0 mi SSW 6.9 mph - N/A   Clear
5:55 PM - - - N/A% 30.36 in 10.0 mi SW 5.8 mph - N/A   Clear
6:15 PM - - - N/A% 30.35 in 10.0 mi SSW 3.5 mph - N/A   Clear
6:35 PM -20.2 °F - -29.2 °F 63% 30.35 in 10.0 mi Calm Calm - N/A   Clear
6:55 PM -22.0 °F -33.0 °F -29.2 °F 69% 30.34 in 10.0 mi South 3.5 mph - N/A   Clear
7:15 PM -23.8 °F -35.0 °F - N/A% 30.34 in 10.0 mi SSW 3.5 mph - N/A   Clear
7:35 PM -23.8 °F -39.8 °F - N/A% 30.34 in 10.0 mi SSW 5.8 mph - N/A   Clear
7:55 PM -23.8 °F -41.6 °F - N/A% 30.33 in 10.0 mi SSW 6.9 mph - N/A   Clear
8:15 PM -23.8 °F -44.5 °F - N/A% 30.33 in 10.0 mi SSW 9.2 mph - N/A   Clear
8:35 PM -23.8 °F -39.8 °F -29.2 °F 76% 30.33 in 10.0 mi SSW 5.8 mph - N/A   Clear
8:55 PM -25.6 °F -45.4 °F - N/A% 30.32 in 10.0 mi SSW 8.1 mph - N/A   Clear
9:15 PM -23.8 °F -39.8 °F - N/A% 30.31 in 10.0 mi South 5.8 mph - N/A   Clear
9:35 PM -23.8 °F -39.8 °F -29.2 °F 76% 30.30 in 10.0 mi SSW 5.8 mph - N/A   Clear
9:55 PM -23.8 °F -41.6 °F - N/A% 30.29 in 10.0 mi SSW 6.9 mph - N/A   Clear
10:15 PM -25.6 °F -45.4 °F - N/A% 30.27 in 10.0 mi SSW 8.1 mph - N/A   Clear
10:35 PM -23.8 °F -43.2 °F - N/A% 30.26 in 10.0 mi SSW 8.1 mph - N/A   Clear
10:55 PM -25.6 °F -46.8 °F - N/A% 30.25 in 10.0 mi SSW 9.2 mph - N/A   Clear
11:15 PM -25.6 °F -45.4 °F - N/A% 30.23 in 10.0 mi SSW 8.1 mph - N/A   Clear
11:35 PM -25.6 °F -43.8 °F - N/A% 30.23 in 10.0 mi SSW 6.9 mph - N/A   Clear
11:55 PM -25.6 °F -43.8 °F - N/A% 30.22 in 10.0 mi SSW 6.9 mph - N/A   Clear